This demonstration page uses our WeatherBlox Daily Observations layout. Learn more.

Left ArrowRight Arrow

36.19886, -115.1175

Hourly Observations for March 5, 2017

Temp ( °F °C ) Dew Point ( °F °C ) Humidity (%) Winds ( mph kmh ) Pressure ( in mb ) Visibility ( mi km ) Precip ( " mm )
12:53 am 00:53 Clear 61 16.1 24 -4.4 24 24 S 10 17 29.84 1011 10 16 N/A
1:53 am 01:53 Clear 61 16.1 23 -5 23 23 SSW 7 11 29.82 1010 10 16 N/A
2:53 am 02:53 Clear 61 16.1 25 -3.9 25 25 SSW 12 19 29.78 1009 10 16 N/A
3:53 am 03:53 Clear 57 13.9 26 -3.3 30 30 SE 13 20 29.77 1008 10 16 N/A
4:53 am 04:53 Clear 59 15 23 -5 25 25 S 13 20 29.77 1008 10 16 N/A
5:53 am 05:53 Clear 58 14.4 21 -6.1 24 24 S 18 30 29.77 1008 10 16 N/A
6:53 am 06:53 Sunny 57 13.9 21 -6.1 25 25 S 17 28 29.77 1008 10 16 N/A
7:53 am 07:53 Sunny 59 15 15 -9.4 18 18 S 14 22 29.78 1008 10 16 N/A
8:53 am 08:53 Sunny 60 15.6 12 -11.1 15 15 SW 12 19 29.77 1008 10 16 N/A
9:53 am 09:53 Sunny 63 17.2 9 -12.8 12 12 S 23 37 29.76 1008 10 16 N/A
10:53 am 10:53 Sunny 66 18.9 5 -15 9 9 SSW 21 33 29.74 1007 10 16 N/A
11:53 am 11:53 Sunny 67 19.4 6 -14.4 9 9 SW 26 43 29.72 1006 10 16 N/A
12:53 pm 12:53 Sunny 67 19.4 13 -10.6 12 12 WSW 26 43 29.69 1005 10 16 N/A
1:53 pm 13:53 Sunny 66 18.9 23 -5 19 19 SW 31 50 29.65 1004 10 16 N/A
2:53 pm 14:53 Mostly Sunny 65 18.3 26 -3.3 23 23 SW 39 63 29.64 1004 10 16 N/A
3:53 pm 15:53 Partly Cloudy 62 16.7 29 -1.7 29 29 SW 29 46 29.62 1003 10 16 N/A
4:53 pm 16:53 Sunny 58 14.4 30 -1.1 35 35 WSW 37 59 29.65 1004 10 16 N/A
5:53 pm 17:53 Mostly Clear 56 13.3 30 -1.1 37 37 WSW 25 41 29.70 1006 10 16 N/A
6:53 pm 18:53 Mostly Cloudy 54 12.2 23 -5 30 30 W 16 26 29.80 1009 10 16 N/A
7:53 pm 19:53 Clear 52 11.1 13 -10.6 21 21 WSW 26 43 29.80 1009 10 16 N/A
8:53 pm 20:53 Clear 50 10 17 -8.3 27 27 WSW 20 31 29.84 1010 10 16 N/A
9:53 pm 21:53 Clear 48 8.9 20 -6.7 33 33 WSW 18 30 29.88 1012 10 16 N/A
10:53 pm 22:53 Clear 48 8.9 19 -7.2 32 32 W 10 17 29.91 1013 10 16 N/A
11:53 pm 23:53 Clear 49 9.4 12 -11.1 22 22 NNW 14 22 29.93 1014 10 16 N/A

Powered by AerisWeather